Munising, MI

1:28 AM EST on February 23, 2017 (GMT -0500)
Munising

Weather History for KP53 - October, 2012

Change the Weather History Date:

Sunday, October 21, 2012

  Actual Average (KISQ) Record (KISQ)
Temperature  
Mean Temperature 48 °F -  
Max Temperature 62 °F 52 °F 64 °F (1958)
Min Temperature 34 °F 34 °F 22 °F (1974)
Degree Days  
Heating Degree Days 18    
Moisture  
Dew Point 38 °F    
Average Humidity 73    
Maximum Humidity 93    
Minimum Humidity 42    
Precipitation  
Precipitation 0.00 in - - ()
Sea Level Pressure  
Sea Level Pressure 29.95 in    
Wind  
Wind Speed 7 mph (South)    
Max Wind Speed 10 mph    
Max Gust Speed -    
Averages and records for this station are not official NWS values.
T = Trace of Precipitation, MM = Missing Value Source: NWS Daily Summary

Daily Weather History Graph

Daily Weather History Graph

Search for Another Location

Airport or City:

Trip Planner

Search our weather history database for the weather conditions in past years. The results will help you decide how hot, cold, wet, or windy it might be!

Date:

Astronomy

Oct. 21, 2012 Rise Set
Actual Time 8:12 AM EDT 6:48 PM EDT
Civil Twilight 7:42 AM EDT 7:19 PM EDT
Nautical Twilight 7:07 AM EDT 7:54 PM EDT
Astronomical Twilight 6:32 AM EDT 8:29 PM EDT
Moon 2:40 PM EDT (10/21) No Moon Set
Length of Visible Light 11h 36m
Length of Day
10h 35m
Waxing Crescent, 45% of the Moon is Illuminated
Oct 21
Waxing Crescent
Oct 21
First Quarter
Oct 29
Full
Nov 6
Last Quarter
Nov 13
New

Hourly Weather History & Observations

Time (EDT) Temp. Windchill Dew Point Humidity Pressure Visibility Wind Dir Wind Speed Gust Speed Precip Events Conditions
12:56 AM 37.9 °F 32.7 °F 36.0 °F 93% 29.85 in - SSW 6.9 mph - N/A   Unknown
1:56 AM 36.0 °F 29.6 °F 34.0 °F 93% 29.86 in - South 8.1 mph - N/A   Unknown
2:56 AM 37.9 °F 32.1 °F 35.1 °F 89% 29.88 in - South 8.1 mph - N/A   Unknown
3:56 AM 36.0 °F 30.3 °F 34.0 °F 93% 29.89 in - South 6.9 mph - N/A   Unknown
4:56 AM 34.0 °F 28.8 °F 32.0 °F 92% 29.90 in - South 5.8 mph - N/A   Unknown
5:56 AM 34.0 °F 28.0 °F 32.0 °F 92% 29.91 in - South 6.9 mph - N/A   Unknown
6:56 AM 34.0 °F 26.0 °F 32.0 °F 92% 29.92 in - South 10.4 mph - N/A   Unknown
7:56 AM 34.0 °F 28.0 °F 32.0 °F 92% 29.94 in - South 6.9 mph - N/A   Unknown
8:56 AM 35.1 °F 27.9 °F 33.1 °F 92% 29.96 in - South 9.2 mph - N/A   Unknown
9:56 AM 41.0 °F 35.8 °F 37.9 °F 89% 29.96 in - SSE 8.1 mph - N/A   Unknown
10:56 AM 51.1 °F - 42.1 °F 71% 29.97 in - SSW 4.6 mph - N/A   Unknown
11:56 AM 55.9 °F - 39.0 °F 53% 29.98 in - Variable 5.8 mph - N/A   Unknown
12:56 PM 57.0 °F - 39.0 °F 51% 29.98 in - Variable 5.8 mph - N/A   Unknown
1:56 PM 59.0 °F - 37.9 °F 46% 29.97 in - SSW 6.9 mph - N/A   Unknown
2:56 PM 59.0 °F - 37.0 °F 44% 29.96 in - South 4.6 mph - N/A   Unknown
3:56 PM 61.0 °F - 37.9 °F 42% 29.96 in - SW 3.5 mph - N/A   Unknown
4:56 PM 59.0 °F - 39.0 °F 48% 29.97 in - South 5.8 mph - N/A   Unknown
5:56 PM 57.0 °F - 39.0 °F 51% 29.97 in - South 8.1 mph - N/A   Unknown
6:56 PM 54.0 °F - 39.9 °F 59% 29.98 in - South 5.8 mph - N/A   Unknown
7:56 PM 52.0 °F - 41.0 °F 66% 29.97 in - SSW 5.8 mph - N/A   Unknown
8:56 PM 50.0 °F - 42.1 °F 74% 29.98 in - South 5.8 mph - N/A   Unknown
9:56 PM 50.0 °F - 42.1 °F 74% 29.98 in - South 6.9 mph - N/A   Unknown
10:56 PM 48.9 °F - 43.0 °F 80% 29.98 in - South 6.9 mph - N/A   Unknown
11:56 PM 48.9 °F - 43.0 °F 80% 30.00 in - South 3.5 mph - N/A   Unknown